Date String (YYYY-MM-DD hh:mm:ss) UTC,Instrument flags,Ambient pressure (hPa),Sample flow (lpm),Bypass flow (lpm),Sample temperature (°C),Ambient temperature (°C),ASC tube jacket temperature (°C),LED temperature (°C),Box temperature (°C),Sample RH (%),Span deviation,Mass concentration (μg/m³),Mass concentration (μg/m³),Mass concentration (μg/m³)
DateTimeUTC,F1_M11,P_M11,Q1_M11,Q2_M11,T1_M11,T2_M11,T3_M11,T4_M11,T5_M11,U1_M11,ZSPAN_M11,X0_M11,X2_M11,X1_M11
2021-11-13 03:00:00,,0830.5,4.99,0.00,27.0,26.1,00.0,36.0,28.7,10.8,0000.0,0019.42,0003.96,0002.29
2021-11-13 03:01:00,,0830.4,5.00,0.00,27.0,26.1,00.0,36.0,28.7,10.8,0000.0,0019.80,0003.92,0002.28
2021-11-13 03:02:00,,0830.4,5.00,0.00,27.0,26.1,00.0,36.0,28.7,10.9,0000.0,0018.49,0003.91,0002.26
2021-11-13 03:03:00,,0830.5,5.01,0.00,27.0,26.1,00.0,36.0,28.7,11.1,0000.0,0018.39,0003.86,0002.22
2021-11-13 03:04:00,,0830.4,5.00,0.00,27.0,26.1,00.0,36.0,28.7,11.2,0000.0,0016.48,0003.81,0002.18
2021-11-13 03:05:00,,0830.4,5.00,0.00,27.0,26.1,00.0,36.0,28.7,12.2,0000.0,0016.37,0003.74,0002.07
2021-11-13 03:06:00,,0830.4,5.00,0.00,27.0,26.1,00.0,36.0,28.7,11.5,0000.0,0016.70,0003.70,0002.03
2021-11-13 03:07:00,,0830.4,5.01,0.00,27.0,26.1,00.0,36.0,28.7,11.1,0000.0,0017.32,0003.73,0002.02
2021-11-13 03:08:00,,0830.5,5.01,0.00,26.9,26.1,00.0,36.0,28.7,11.6,0000.0,0016.07,0003.72,0001.97
2021-11-13 03:09:00,,0830.4,5.00,0.00,26.9,26.1,00.0,36.0,28.7,11.1,0000.0,0015.44,0003.66,0001.93
2021-11-13 03:10:00,,0830.3,4.99,0.00,26.9,26.0,00.0,36.0,28.7,11.8,0000.0,0014.68,0003.63,0001.87
2021-11-13 03:11:00,,0830.4,5.01,0.00,26.9,26.0,00.0,36.0,28.7,12.3,0000.0,0015.01,0003.53,0001.78
2021-11-13 03:12:00,,0830.4,4.98,0.00,26.9,26.0,00.0,36.0,28.7,12.1,0000.0,0014.70,0003.44,0001.68
2021-11-13 03:13:00,,0830.4,5.01,0.00,26.9,26.0,00.0,36.0,28.7,11.3,0000.0,0015.00,0003.38,0001.63
2021-11-13 03:14:00,,0830.4,5.00,0.00,26.9,26.0,00.0,36.0,28.7,11.9,0000.0,0014.89,0003.33,0001.59
2021-11-13 03:15:00,,0830.3,5.00,0.00,26.9,26.0,00.0,35.9,28.7,12.2,0000.0,0015.58,0003.23,0001.52
2021-11-13 03:16:00,,0830.4,5.00,0.00,26.9,26.0,00.0,35.9,28.7,12.5,0000.0,0015.38,0003.18,0001.50
2021-11-13 03:17:00,,0830.3,5.00,0.00,26.9,26.1,00.0,35.9,28.7,12.4,0000.0,0014.94,0003.14,0001.47
2021-11-13 03:18:00,,0830.4,5.00,0.00,26.9,26.1,00.0,35.9,28.7,11.5,0000.0,0013.96,0003.07,0001.43
2021-11-13 03:19:00,,0830.3,4.99,0.00,26.9,26.0,00.0,35.9,28.7,11.6,0000.0,0013.58,0003.05,0001.44
2021-11-13 03:20:00,,0830.4,5.01,0.00,26.9,26.1,00.0,35.9,28.7,11.4,0000.0,0012.74,0003.05,0001.42
2021-11-13 03:21:00,,0830.4,5.00,0.00,26.9,26.1,00.0,35.9,28.7,11.4,0000.0,0012.53,0003.11,0001.42
2021-11-13 03:22:00,,0830.4,4.99,0.00,26.9,26.0,00.0,35.9,28.7,11.5,0000.0,0011.96,0003.22,0001.45
2021-11-13 03:23:00,,0830.4,5.00,0.00,26.9,26.0,00.0,35.9,28.7,11.4,0000.0,0013.16,0003.27,0001.49
2021-11-13 03:24:00,,0830.4,5.00,0.00,26.9,26.0,00.0,35.9,28.7,11.3,0000.0,0012.67,0003.26,0001.51
2021-11-13 03:25:00,,0830.4,5.00,0.00,26.9,26.0,00.0,35.9,28.7,11.3,0000.0,0012.83,0003.33,0001.54
2021-11-13 03:26:00,,0830.4,5.00,0.00,26.9,26.1,00.0,35.9,28.7,11.2,0000.0,0012.53,0003.39,0001.60
2021-11-13 03:27:00,,0830.4,5.01,0.00,26.9,26.1,00.0,35.9,28.7,11.2,0000.0,0012.73,0003.50,0001.67
2021-11-13 03:28:00,,0830.5,5.00,0.00,26.9,26.1,00.0,35.9,28.7,11.2,0000.0,0013.41,0003.58,0001.75
2021-11-13 03:29:00,,0830.5,5.00,0.00,26.9,26.1,00.0,35.9,28.7,11.2,0000.0,0013.22,0003.56,0001.79
2021-11-13 03:30:00,,0830.4,4.99,0.00,27.0,26.1,00.0,35.9,28.8,11.1,0000.0,0013.34,0003.57,0001.80
2021-11-13 03:31:00,,0830.4,5.00,0.00,26.9,26.1,00.0,35.9,28.7,11.1,0000.0,0014.03,0003.63,0001.83
2021-11-13 03:32:00,,0830.4,5.00,0.00,26.9,26.1,00.0,35.9,28.7,11.1,0000.0,0015.26,0003.56,0001.84
2021-11-13 03:33:00,,0830.4,5.00,0.00,27.0,26.1,00.0,35.9,28.7,11.2,0000.0,0015.80,0003.48,0001.85
2021-11-13 03:34:00,,0830.3,5.00,0.00,27.0,26.1,00.0,35.9,28.8,11.3,0000.0,0013.92,0003.47,0001.87
2021-11-13 03:35:00,,0830.3,5.01,0.00,27.0,26.1,00.0,35.9,28.8,11.7,0000.0,0012.80,0003.39,0001.84
2021-11-13 03:36:00,,0830.2,4.99,0.00,27.0,26.1,00.0,35.9,28.8,11.7,0000.0,0012.72,0003.37,0001.83
2021-11-13 03:37:00,,0830.3,5.00,0.00,27.0,26.1,00.0,35.9,28.8,11.6,0000.0,0012.34,0003.36,0001.81
2021-11-13 03:38:00,,0830.3,5.01,0.00,27.0,26.1,00.0,36.0,28.8,11.3,0000.0,0012.40,0003.34,0001.80
2021-11-13 03:39:00,,0830.3,4.99,0.00,27.0,26.1,00.0,35.9,28.7,11.3,0000.0,0012.12,0003.34,0001.78
2021-11-13 03:40:00,,0830.3,5.01,0.00,27.0,26.1,00.0,35.9,28.7,11.3,0000.0,0012.43,0003.43,0001.78
2021-11-13 03:41:00,,0830.3,4.99,0.00,27.0,26.0,00.0,36.0,28.7,11.6,0000.0,0012.64,0003.43,0001.77
2021-11-13 03:42:00,,0830.3,5.00,0.00,26.9,26.1,00.0,35.9,28.7,11.6,0000.0,0012.72,0003.35,0001.73
2021-11-13 03:43:00,,0830.3,5.01,0.00,27.0,26.1,00.0,35.9,28.7,11.7,0000.0,0011.69,0003.38,0001.70
2021-11-13 03:44:00,,0830.3,4.99,0.00,26.9,26.0,00.0,35.9,28.7,11.6,0000.0,0011.10,0003.42,0001.68
2021-11-13 03:45:00,,0830.3,5.01,0.00,26.9,26.0,00.0,35.9,28.7,11.8,0000.0,0011.15,0003.41,0001.66
2021-11-13 03:46:00,,0830.4,5.00,0.00,26.9,26.0,00.0,35.9,28.7,11.8,0000.0,0011.55,0003.43,0001.64
2021-11-13 03:47:00,,0830.3,5.00,0.00,26.9,26.0,00.0,35.9,28.7,11.7,0000.0,0010.95,0003.39,0001.64
2021-11-13 03:48:00,,0830.3,4.99,0.00,26.9,26.0,00.0,35.9,28.7,12.1,0000.0,0010.81,0003.40,0001.63
2021-11-13 03:49:00,,0830.3,5.02,0.00,26.9,26.0,00.0,35.9,28.7,12.2,0000.0,0010.30,0003.37,0001.58
2021-11-13 03:50:00,,0830.3,4.99,0.00,26.9,26.1,00.0,35.9,28.7,11.9,0000.0,0009.80,0003.31,0001.55
2021-11-13 03:51:00,,0830.3,5.01,0.00,26.9,26.0,00.0,35.9,28.7,11.8,0000.0,0009.52,0003.24,0001.52
2021-11-13 03:52:00,,0830.3,5.00,0.00,26.9,26.0,00.0,35.9,28.7,12.1,0000.0,0009.10,0003.18,0001.48
2021-11-13 03:53:00,,0830.3,4.99,0.00,26.9,26.0,00.0,35.9,28.7,11.8,0000.0,0008.78,0003.16,0001.47
2021-11-13 03:54:00,,0830.3,5.00,0.00,26.9,26.0,00.0,35.9,28.7,11.6,0000.0,0008.99,0003.14,0001.48
2021-11-13 03:55:00,,0830.3,5.02,0.00,26.9,26.0,00.0,35.9,28.7,11.5,0000.0,0009.22,0003.15,0001.49
2021-11-13 03:56:00,,0830.3,4.99,0.00,26.9,26.0,00.0,35.9,28.7,11.5,0000.0,0009.88,0003.17,0001.51
2021-11-13 03:57:00,,0830.3,5.02,0.00,26.9,26.0,00.0,35.9,28.7,11.5,0000.0,0010.49,0003.24,0001.54
2021-11-13 03:58:00,,0830.3,5.00,0.00,26.9,26.0,00.0,35.9,28.7,11.9,0000.0,0011.30,0003.27,0001.54
2021-11-13 03:59:00,,0830.3,4.99,0.00,26.9,26.0,00.0,35.9,28.7,12.2,0000.0,0011.67,0003.25,0001.52
